User: anonymous   Login
Location: Whispering Pines Observatory
(39.4020°N, 104.7430°W)
Time: 01:37:49
(UTC-07:00)
Language:

MOS 1 Rocket - Orbit

View from above orbital plane
View from above orbital plane
View from above satellite
View from above satellite

Ground track
Ground track

The orbit data is extracted from the following two-line orbital elements,

1 17528U 87018B   15030.78798553  .00000489  00000-0  11681-3 0  5850
2 17528 097.4338 079.0677 0154650 139.9490 348.7523 14.50274489473988
Epoch (UTC): 30 January 2015 18:54:41
Eccentricity: 0.0154650
inclination: 97.4338°
perigee height: 615 km
apogee height: 834 km
right ascension of ascending node: 79.0677°
argument of perigee: 139.9490°
revolutions per day: 14.50274489
mean anomaly at epoch: 348.7523°
orbit number at epoch: 47398

The dashed part of the orbit path shows where the satellite is in the earth's shadow,  

DLR